When you browse on this site, cookies collect data to enhance your experience and personalize the content and advertising you see.
Visit our Privacy Policy to learn more. By continuing to use the site, you agree to this use of cookies and data.
  • In Czech Republic
  • List of Countries
  • For 7 days
  • Water Temperature
  • Satellite Maps
  • Weather Map
  • Weather Widgets
  • user-avatar
    Login

    Hourly Weather Aranda de Duero

    Today, 14 December, Friday

    Time Temperature Precipitation Wind Pressure Humidity
    00:00 0°C° 0 mm 4 mps 690 mmHg 84%
    01:00 0°C° 0 mm 4 mps 691 mmHg 86%
    02:00 +1°C° 0 mm 3 mps 691 mmHg 88%
    03:00 +1°C° 0 mm 3 mps 691 mmHg 90%
    04:00 +1°C° 0 mm 3 mps 691 mmHg 91%
    05:00 +1°C° 0 mm 3 mps 692 mmHg 92%
    06:00 +1°C° 0 mm 3 mps 692 mmHg 92%
    07:00 +1°C° 0 mm 3 mps 693 mmHg 91%
    08:00 +1°C° 0 mm 3 mps 693 mmHg 90%
    09:00 +2°C° 0 mm 3 mps 694 mmHg 88%
    10:00 +3°C° 0 mm 3 mps 694 mmHg 82%
    11:00 +4°C° 0 mm 3 mps 694 mmHg 77%
    12:00 +5°C° 0 mm 4 mps 695 mmHg 71%
    13:00 +6°C° 0 mm 4 mps 695 mmHg 70%
    14:00 +6°C° 0 mm 4 mps 695 mmHg 68%
    15:00 +7°C° 0 mm 3 mps 695 mmHg 67%
    16:00 +5°C° 0 mm 3 mps 695 mmHg 72%
    17:00 +4°C° 0 mm 3 mps 695 mmHg 77%
    18:00 +3°C° 0 mm 3 mps 695 mmHg 81%
    19:00 +3°C° 0 mm 3 mps 696 mmHg 83%
    20:00 +2°C° 0 mm 3 mps 696 mmHg 84%
    21:00 +2°C° 0 mm 3 mps 696 mmHg 86%
    22:00 +2°C° 0 mm 3 mps 696 mmHg 87%
    23:00 +3°C° 0 mm 2 mps 696 mmHg 88%

    Tomorrow, 15 December, Saturday

    Time Temperature Precipitation Wind Pressure Humidity
    00:00 +3°C° 0 mm 2 mps 696 mmHg 89%
    01:00 +3°C° 0 mm 2 mps 696 mmHg 90%
    02:00 +3°C° 0 mm 2 mps 696 mmHg 91%
    03:00 +3°C° 0 mm 2 mps 696 mmHg 91%
    04:00 +3°C° 0 mm 2 mps 695 mmHg 92%
    05:00 +4°C° 0 mm 2 mps 695 mmHg 93%
    06:00 +4°C° 0 mm 2 mps 695 mmHg 94%
    07:00 +4°C° 0.3 mm 3 mps 695 mmHg 94%
    08:00 +5°C° 0.3 mm 3 mps 696 mmHg 94%
    09:00 +7°C° 0.3 mm 3 mps 696 mmHg 95%
    10:00 +7°C° 0 mm 4 mps 696 mmHg 92%
    11:00 +8°C° 0 mm 5 mps 696 mmHg 89%
    12:00 +9°C° 0 mm 5 mps 695 mmHg 85%
    13:00 +9°C° 0 mm 5 mps 695 mmHg 83%
    14:00 +10°C° 0 mm 5 mps 695 mmHg 81%
    15:00 +10°C° 0 mm 5 mps 694 mmHg 78%
    16:00 +11°C° 0 mm 4 mps 694 mmHg 80%
    17:00 +10°C° 0 mm 4 mps 694 mmHg 82%
    18:00 +8°C° 0 mm 4 mps 694 mmHg 84%
    19:00 +9°C° 0.2 mm 3 mps 694 mmHg 85%
    20:00 +9°C° 0.2 mm 3 mps 694 mmHg 85%
    21:00 +9°C° 0.2 mm 3 mps 694 mmHg 86%
    22:00 +9°C° 0.9 mm 3 mps 694 mmHg 87%
    23:00 +8°C° 0.9 mm 3 mps 694 mmHg 89%

    Day after tomorrow, 16 December, Sunday

    Time Temperature Precipitation Wind Pressure Humidity
    00:00 +8°C° 0.9 mm 3 mps 693 mmHg 90%
    01:00 +7°C° 1.4 mm 4 mps 693 mmHg 91%
    02:00 +7°C° 1.4 mm 4 mps 693 mmHg 92%
    03:00 +7°C° 1.4 mm 4 mps 693 mmHg 92%
    04:00 +7°C° 1.7 mm 4 mps 692 mmHg 93%
    05:00 +8°C° 1.7 mm 3 mps 692 mmHg 93%
    06:00 +8°C° 1.7 mm 3 mps 691 mmHg 93%
    07:00 +8°C° 1.6 mm 3 mps 692 mmHg 93%
    08:00 +7°C° 1.6 mm 4 mps 692 mmHg 93%
    09:00 +7°C° 1.6 mm 4 mps 692 mmHg 92%
    10:00 +7°C° 0.2 mm 5 mps 692 mmHg 88%
    11:00 +8°C° 0.2 mm 6 mps 692 mmHg 84%
    12:00 +8°C° 0.2 mm 7 mps 691 mmHg 80%
    13:00 +8°C° 0 mm 7 mps 692 mmHg 77%
    14:00 +7°C° 0 mm 8 mps 692 mmHg 73%
    15:00 +7°C° 0 mm 8 mps 692 mmHg 69%
    16:00 +6°C° 0.1 mm 7 mps 692 mmHg 73%
    17:00 +5°C° 0.1 mm 6 mps 693 mmHg 77%
    18:00 +5°C° 0.1 mm 6 mps 694 mmHg 81%
    19:00 +5°C° 0 mm 5 mps 694 mmHg 84%
    20:00 +4°C° 0 mm 4 mps 695 mmHg 86%
    21:00 +3°C° 0 mm 4 mps 696 mmHg 88%
    22:00 +3°C° 0 mm 3 mps 696 mmHg 90%
    23:00 +2°C° 0 mm 3 mps 696 mmHg 91%

    17 December, Monday

    Time Temperature Precipitation Wind Pressure Humidity
    00:00 +2°C° 0 mm 3 mps 696 mmHg 93%
    01:00 +2°C° 0 mm 3 mps 696 mmHg 93%
    02:00 +2°C° 0 mm 3 mps 697 mmHg 94%
    03:00 +2°C° 0 mm 3 mps 697 mmHg 94%
    04:00 +1°C° 0 mm 3 mps 697 mmHg 94%
    05:00 +2°C° 0 mm 2 mps 697 mmHg 93%
    06:00 +2°C° 0 mm 2 mps 697 mmHg 93%
    07:00 +2°C° 0 mm 2 mps 697 mmHg 91%
    08:00 +2°C° 0 mm 2 mps 698 mmHg 89%
    09:00 +3°C° 0 mm 2 mps 698 mmHg 88%
    10:00 +4°C° 0 mm 2 mps 698 mmHg 81%
    11:00 +5°C° 0 mm 2 mps 698 mmHg 75%
    12:00 +6°C° 0 mm 2 mps 698 mmHg 68%
    13:00 +6°C° 0 mm 2 mps 698 mmHg 66%
    14:00 +7°C° 0 mm 2 mps 697 mmHg 63%
    15:00 +7°C° 0 mm 2 mps 697 mmHg 61%
    16:00 +7°C° 0 mm 1 mps 697 mmHg 66%
    17:00 +6°C° 0 mm 1 mps 697 mmHg 71%
    18:00 +5°C° 0 mm 1 mps 697 mmHg 75%
    19:00 +5°C° 0 mm 1 mps 697 mmHg 74%
    20:00 +4°C° 0 mm 2 mps 697 mmHg 73%
    21:00 +4°C° 0 mm 2 mps 697 mmHg 71%
    22:00 +4°C° 0 mm 2 mps 697 mmHg 71%
    23:00 +3°C° 0 mm 2 mps 696 mmHg 71%

    18 December, Tuesday

    Time Temperature Precipitation Wind Pressure Humidity
    00:00 +3°C° 0 mm 2 mps 696 mmHg 72%
    01:00 +3°C° 0 mm 2 mps 696 mmHg 70%
    02:00 +3°C° 0 mm 2 mps 695 mmHg 69%
    03:00 +3°C° 0 mm 2 mps 695 mmHg 67%
    04:00 +2°C° 0 mm 3 mps 694 mmHg 67%
    05:00 +2°C° 0 mm 3 mps 694 mmHg 67%
    06:00 +2°C° 0 mm 3 mps 693 mmHg 66%
    07:00 +2°C° 0 mm 3 mps 694 mmHg 65%
    08:00 +3°C° 0 mm 3 mps 694 mmHg 64%
    09:00 +4°C° 0 mm 3 mps 694 mmHg 63%
    10:00 +5°C° 0 mm 3 mps 693 mmHg 59%
    11:00 +6°C° 0 mm 4 mps 693 mmHg 54%
    12:00 +8°C° 0 mm 5 mps 693 mmHg 50%
    13:00 +8°C° 0.2 mm 5 mps 693 mmHg 53%
    14:00 +8°C° 0.2 mm 5 mps 692 mmHg 55%
    15:00 +7°C° 0.2 mm 5 mps 692 mmHg 57%
    16:00 +7°C° 0.5 mm 4 mps 692 mmHg 65%
    17:00 +6°C° 0.5 mm 4 mps 692 mmHg 73%
    18:00 +7°C° 0.5 mm 3 mps 692 mmHg 81%
    19:00 +7°C° 0.7 mm 3 mps 692 mmHg 83%
    20:00 +7°C° 0.7 mm 3 mps 692 mmHg 86%
    21:00 +7°C° 0.7 mm 3 mps 692 mmHg 88%
    22:00 +7°C° 0.7 mm 3 mps 692 mmHg 89%
    23:00 +7°C° 0.7 mm 3 mps 692 mmHg 91%

    19 December, Wednesday

    Time Temperature Precipitation Wind Pressure Humidity
    00:00 +7°C° 0.7 mm 3 mps 692 mmHg 92%
    01:00 +7°C° 0.7 mm 2 mps 692 mmHg 93%
    02:00 +7°C° 0.7 mm 2 mps 692 mmHg 94%
    03:00 +7°C° 0.7 mm 2 mps 692 mmHg 95%
    04:00 +7°C° 0.4 mm 2 mps 692 mmHg 94%
    05:00 +6°C° 0.4 mm 2 mps 692 mmHg 94%
    06:00 +6°C° 0.4 mm 2 mps 692 mmHg 94%
    07:00 +4°C° 0.1 mm 3 mps 693 mmHg 92%
    08:00 +4°C° 0.1 mm 3 mps 693 mmHg 91%
    09:00 +4°C° 0.1 mm 3 mps 693 mmHg 89%
    10:00 +5°C° 0 mm 4 mps 693 mmHg 82%
    11:00 +6°C° 0 mm 4 mps 694 mmHg 76%
    12:00 +6°C° 0 mm 4 mps 694 mmHg 69%
    13:00 +6°C° 0 mm 4 mps 694 mmHg 70%
    14:00 +6°C° 0 mm 5 mps 693 mmHg 71%
    15:00 +6°C° 0 mm 5 mps 693 mmHg 72%
    16:00 +6°C° 0 mm 4 mps 694 mmHg 75%
    17:00 +5°C° 0 mm 3 mps 694 mmHg 78%
    18:00 +4°C° 0 mm 3 mps 694 mmHg 81%
    19:00 +4°C° 0 mm 3 mps 694 mmHg 84%
    20:00 +3°C° 0 mm 3 mps 695 mmHg 87%
    21:00 +2°C° 0 mm 3 mps 695 mmHg 89%
    22:00 +2°C° 0 mm 3 mps 695 mmHg 90%
    23:00 +2°C° 0 mm 3 mps 695 mmHg 92%
    Show more